STARLINK-36698

Last updated on Tue Mar 10 2026 00:02:05 GMT+0000 (Coordinated Universal Time)

1 67709U 26025S 26068.28394609 .00110242 00000+0 72995-3 0 9991 2 67709 97.2833 179.9551 0002027 68.6434 291.5047 15.75205394 5882
UTC large
Height (km)
Speed (km/s)
/
Latitude / Longitude
Inclination (degrees)
Orbital Period (minutes)
Azimuth
Elevation
Range (km)
Doppler Factor

Next 0 passes for location: London (51.5072 / 0.1276)

Sorry there are no passes over London.